Weather History for Marion Regional, IL

Change the Weather History Date:

Monday, February 4, 2013

  Actual Average Record
Temperature  
Mean Temperature 37 °F -  
Max Temperature 46 °F 41 °F 69 °F (2008)
Min Temperature 28 °F 20 °F -11 °F (1985)
Degree Days  
Heating Degree Days 28    
Moisture  
Dew Point 31 °F    
Average Humidity 77    
Maximum Humidity 93    
Minimum Humidity 46    
Precipitation  
Precipitation 0.00 in - - ()
Sea Level Pressure  
Sea Level Pressure 29.95 in    
Wind  
Wind Speed 8 mph (SSW)    
Max Wind Speed 17 mph    
Max Gust Speed -    
Visibility 13 miles    
Events Rain    
Averages and records for this station are not official NWS values.
T = Trace of Precipitation, MM = Missing Value Source: NWS Daily Summary

Daily Weather History Graph

Daily Weather History Graph

Search for Another Location

Airport:

Trip Planner

Search our weather history database for the weather conditions in past years. The results will help you decide how hot, cold, wet, or windy it might be!

Date:

Astronomy

Feb. 04, 2013 Rise Set
Actual Time 6:57 AM CST 5:23 PM CST
Civil Twilight 6:29 AM CST 5:50 PM CST
Nautical Twilight 5:58 AM CST 6:22 PM CST
Astronomical Twilight 5:27 AM CST 6:52 PM CST
Moon 1:31 AM CST (2/4) 11:48 AM CST (2/4)
Length of Visible Light 11h 21m
Length of Day
10h 26m
Last Quarter, 37% of the Moon is Illuminated
Feb 4
Last Quarter
Feb 10
New
Feb 17
First Quarter
Feb 25
Full
Mar 4
Last Quarter

Hourly Weather History & Observations

Time (CST) Temp. Windchill Dew Point Humidity Pressure Visibility Wind Dir Wind Speed Gust Speed Precip Events Conditions
12:15 AM 28.4 °F 23.3 °F 21.2 °F 74% 30.08 in 10.0 mi SE 4.6 mph - N/A   Clear
12:35 AM 28.4 °F 24.6 °F 21.2 °F 74% 30.07 in 10.0 mi SE 3.5 mph - N/A   Clear
12:55 AM 30.2 °F 25.4 °F 21.2 °F 69% 30.07 in 10.0 mi SE 4.6 mph - N/A   Clear
1:15 AM 30.2 °F 24.3 °F 21.2 °F 69% 30.07 in 10.0 mi SSE 5.8 mph - N/A   Clear
1:35 AM 30.2 °F 24.3 °F 23.0 °F 75% 30.05 in 10.0 mi SSE 5.8 mph - N/A   Clear
1:55 AM 30.2 °F 24.3 °F 23.0 °F 75% 30.05 in 10.0 mi SSE 5.8 mph - N/A   Clear
2:15 AM 32.0 °F 24.8 °F 23.0 °F 69% 30.04 in 10.0 mi SSE 8.1 mph - N/A   Clear
2:35 AM 32.0 °F 23.0 °F 24.8 °F 75% 30.04 in 10.0 mi South 11.5 mph - N/A   Clear
2:55 AM 32.0 °F 24.2 °F 24.8 °F 75% 30.03 in 10.0 mi SSE 9.2 mph - N/A   Clear
3:15 AM 32.0 °F 24.8 °F 24.8 °F 75% 30.02 in 10.0 mi SSE 8.1 mph - N/A   Clear
3:35 AM 32.0 °F 24.8 °F 24.8 °F 75% 30.01 in 10.0 mi SSE 8.1 mph - N/A   Clear
4:55 AM 32.0 °F 24.2 °F 26.6 °F 80% 29.97 in 10.0 mi South 9.2 mph - N/A   Mostly Cloudy
5:15 AM 33.8 °F 27.0 °F 26.6 °F 75% 29.97 in 10.0 mi South 8.1 mph - N/A   Overcast
5:35 AM 33.8 °F 27.7 °F 26.6 °F 75% 29.96 in 10.0 mi SSE 6.9 mph - N/A   Overcast
6:55 AM 35.6 °F 30.7 °F 26.6 °F 70% 29.94 in 15.0 mi South 5.8 mph - N/A   Overcast
7:52 AM 37.4 °F 30.8 °F 26.6 °F 65% 29.93 in 20.0 mi South 9.2 mph - N/A   Overcast
8:52 AM 39.2 °F 30.8 °F 28.4 °F 65% 29.92 in 20.0 mi SSW 15.0 mph - N/A   Overcast
9:52 AM 44.6 °F 38.1 °F 26.6 °F 49% 29.91 in 20.0 mi WSW 13.8 mph - N/A   Overcast
10:53 AM 46.4 °F 39.5 °F 26.6 °F 46% 29.94 in 15.0 mi SW 17.3 mph - N/A Rain Light Rain
11:55 AM 44.6 °F 37.4 °F 32.0 °F 61% 29.90 in 20.0 mi SSW 16.1 mph - N/A   Overcast
12:55 PM 46.4 °F 39.5 °F 35.6 °F 66% 29.87 in 20.0 mi SSW 17.3 mph - N/A   Overcast
1:55 PM 46.4 °F 39.5 °F 37.4 °F 71% 29.86 in 20.0 mi SSW 17.3 mph - N/A   Overcast
2:55 PM 46.4 °F 39.5 °F 39.2 °F 76% 29.86 in 20.0 mi SSW 17.3 mph - N/A   Mostly Cloudy
3:55 PM 46.4 °F 39.5 °F 39.2 °F 76% 29.85 in 20.0 mi SSW 17.3 mph - N/A   Mostly Cloudy
4:55 PM 44.6 °F 38.8 °F 39.2 °F 81% 29.85 in 20.0 mi SSW 11.5 mph - N/A   Clear
5:55 PM 41.0 °F 34.3 °F 39.2 °F 93% 29.86 in 20.0 mi South 11.5 mph - N/A   Clear
6:55 PM 39.2 °F 35.9 °F 37.4 °F 93% 29.89 in 10.0 mi SW 4.6 mph - N/A   Clear
7:15 PM 39.2 °F 34.2 °F 37.4 °F 93% 29.89 in 10.0 mi SSW 6.9 mph - N/A   Clear
7:35 PM 39.2 °F 35.0 °F 37.4 °F 93% 29.90 in 10.0 mi SSW 5.8 mph - N/A   Mostly Cloudy
7:55 PM 39.2 °F 35.9 °F 37.4 °F 93% 29.91 in 10.0 mi SSW 4.6 mph - N/A   Overcast
8:15 PM 41.0 °F 37.1 °F 39.2 °F 93% 29.92 in 10.0 mi WSW 5.8 mph - N/A   Overcast
8:35 PM 41.0 °F 36.4 °F 39.2 °F 93% 29.91 in 10.0 mi SW 6.9 mph - N/A   Mostly Cloudy
8:55 PM 41.0 °F 37.1 °F 39.2 °F 93% 29.92 in 10.0 mi WSW 5.8 mph - N/A   Scattered Clouds
9:15 PM 41.0 °F 36.4 °F 39.2 °F 93% 29.92 in 10.0 mi West 6.9 mph - N/A   Mostly Cloudy
9:35 PM 41.0 °F 39.0 °F 37.4 °F 87% 29.93 in 10.0 mi West 3.5 mph - N/A   Mostly Cloudy
9:55 PM 41.0 °F 36.4 °F 35.6 °F 81% 29.93 in 10.0 mi NW 6.9 mph - N/A   Scattered Clouds
10:15 PM 41.0 °F 37.1 °F 33.8 °F 76% 29.94 in 10.0 mi NW 5.8 mph - N/A   Scattered Clouds
10:35 PM 39.2 °F 35.9 °F 32.0 °F 75% 29.95 in 10.0 mi NW 4.6 mph - N/A   Mostly Cloudy
10:55 PM 37.4 °F 32.8 °F 32.0 °F 81% 29.96 in 10.0 mi NNW 5.8 mph - N/A   Scattered Clouds
11:15 PM 37.4 °F 33.8 °F 32.0 °F 81% 29.96 in 10.0 mi NW 4.6 mph - N/A   Clear
11:35 PM 35.6 °F 32.8 °F 32.0 °F 87% 29.95 in 10.0 mi NNW 3.5 mph - N/A   Clear
11:55 PM 35.6 °F - 30.2 °F 81% 29.96 in 10.0 mi Calm Calm - N/A   Clear